This demonstration page uses our WeatherBlox Daily Observations layout. Learn more.

Hourly Observations for July 12, 2019

Temp ( °F °C ) Dew Point ( °F °C ) Humidity (%) Winds ( mph kmh ) Pressure ( in mb ) Visibility ( mi km ) Precip ( " mm )
12:15 am 00:15 Mostly Cloudy 64 18 64 18 100 100 Calm 29.85 1011 10 16.09344 0 0
12:35 am 00:35 Partly Cloudy 64 18 64 18 100 100 SSW 3 6 29.83 1010 10 16.09344 0 0
12:55 am 00:55 Partly Cloudy 64 18 64 18 100 100 S 3 6 29.83 1010 10 16.09344 0 0
1:15 am 01:15 Partly Cloudy 64 18 64 18 100 100 S 3 6 29.83 1010 10 16.09344 0 0
1:35 am 01:35 Partly Cloudy 64 18 64 18 100 100 S 5 7 29.83 1010 10 16.09344 0 0
1:55 am 01:55 Mostly Cloudy 64 18 64 18 100 100 Calm 29.83 1010 3 4.828032 0 0
2:15 am 02:15 Cloudy 64 18 64 18 100 100 S 3 6 29.83 1010 2 3.218688 0 0
2:35 am 02:35 Cloudy 64 18 64 18 100 100 WSW 5 7 29.83 1010 1.25 2.01168 0 0
2:55 am 02:55 Cloudy 64 18 64 18 100 100 WSW 5 7 29.83 1010 7 11.265408 0 0
3:15 am 03:15 Partly Cloudy 64 18 64 18 100 100 W 7 11 29.8 1009 10 16.09344 0 0
3:35 am 03:35 Clear 64 18 64 18 100 100 Calm 29.8 1009 10 16.09344 0 0
3:55 am 03:55 Clear 64 18 64 18 100 100 W 3 6 29.8 1009 10 16.09344 0 0
4:15 am 04:15 Clear 63 17 63 17 100 100 W 6 9 29.8 1009 10 16.09344 0 0
4:35 am 04:35 Clear 63 17 63 17 100 100 Calm 29.8 1009 10 16.09344 0 0
4:55 am 04:55 Clear 63 17 63 17 100 100 Calm 29.8 1009 10 16.09344 0 0
5:15 am 05:15 Clear 63 17 63 17 100 100 WNW 3 6 29.83 1010 10 16.09344 0 0
5:35 am 05:35 Clear 63 17 63 17 100 100 WNW 8 13 29.83 1010 10 16.09344 0 0
5:55 am 05:55 Sunny 63 17 63 17 100 100 WNW 6 9 29.83 1010 10 16.09344 0 0
6:15 am 06:15 Sunny 63 17 63 17 100 100 W 7 11 29.83 1010 10 16.09344 0 0
6:35 am 06:35 Sunny 64 18 64 18 100 100 W 5 7 29.83 1010 10 16.09344 0 0
6:55 am 06:55 Sunny 64 18 64 18 100 100 WSW 6 9 29.85 1011 10 16.09344 0 0
7:15 am 07:15 Sunny 66 19 66 19 100 100 SW 3 6 29.85 1011 10 16.09344 0 0
7:35 am 07:35 Sunny 68 20 66 19 94 94 W 6 9 29.85 1011 10 16.09344 0 0
7:55 am 07:55 Partly Cloudy 70 21 66 19 88 88 Calm 29.85 1011 10 16.09344 0 0
8:15 am 08:15 Mostly Cloudy 70 21 68 20 94 94 Calm 29.85 1011 10 16.09344 0 0
8:35 am 08:35 Partly Cloudy 70 21 68 20 94 94 Calm 29.85 1011 10 16.09344 0 0
8:55 am 08:55 Sunny 73 23 68 20 83 83 W 3 6 29.88 1012 10 16.09344 0 0
9:15 am 09:15 Sunny 73 23 68 20 83 83 WNW 5 7 29.88 1012 10 16.09344 0 0
9:35 am 09:35 Sunny 77 25 70 21 79 79 WNW 9 15 29.88 1012 10 16.09344 0 0
9:50 am 09:50 Sunny 77 25 70 21 79 79 NNW 9 15 29.88 1012 10 16.09344 0 0
10:15 am 10:15 Sunny 79 26 70 21 74 74 NNW 10 17 29.88 1012 10 16.09344 0 0
10:35 am 10:35 Sunny 79 26 70 21 74 74 NW 7 11 29.88 1012 10 16.09344 0 0
10:55 am 10:55 Partly Cloudy 81 27 70 21 70 70 NW 6 9 29.88 1012 10 16.09344 0 0
11:15 am 11:15 Sunny 81 27 70 21 70 70 NW 9 15 29.88 1012 10 16.09344 0 0
11:35 am 11:35 Sunny 82 28 72 22 70 70 NW 8 13 29.88 1012 10 16.09344 0 0
11:55 am 11:55 Partly Cloudy 82 28 72 22 70 70 NW 8 13 29.88 1012 10 16.09344 0 0
12:15 pm 12:15 Mostly Cloudy 82 28 70 21 66 66 N 7 11 29.88 1012 10 16.09344 0 0
12:35 pm 12:35 Mostly Cloudy 82 28 72 22 70 70 NNW 8 13 29.88 1012 10 16.09344 0 0
12:55 pm 12:55 Partly Cloudy 84 29 72 22 66 66 N 8 13 29.88 1012 10 16.09344 0 0
1:15 pm 13:15 Partly Cloudy 86 30 72 22 62 62 N 13 20 29.83 1010 10 16.09344 0 0
1:35 pm 13:35 Partly Cloudy 84 29 72 22 66 66 N 6 9 29.83 1010 10 16.09344 0 0
2:15 pm 14:15 Partly Cloudy 84 29 70 21 62 62 NW 10 17 29.83 1010 10 16.09344 0 0
2:35 pm 14:35 Partly Cloudy 86 30 72 22 62 62 Calm 29.83 1010 10 16.09344 0 0
2:55 pm 14:55 Partly Cloudy 88 31 72 22 59 59 WNW 8 13 29.83 1010 10 16.09344 0 0
3:15 pm 15:15 Partly Cloudy 88 31 70 21 55 55 NW 12 19 29.83 1010 10 16.09344 0 0
3:35 pm 15:35 Partly Cloudy 88 31 70 21 55 55 N 10 17 29.8 1009 10 16.09344 0 0
3:55 pm 15:55 Partly Cloudy 88 31 70 21 55 55 NNW 9 15 29.8 1009 10 16.09344 0 0
4:15 pm 16:15 Partly Cloudy 90 32 70 21 52 52 WNW 7 11 29.8 1009 10 16.09344 0 0
4:35 pm 16:35 Partly Cloudy 88 31 70 21 55 55 N 5 7 29.8 1009 10 16.09344 0 0
4:55 pm 16:55 Mostly Cloudy 88 31 70 21 55 55 NNW 8 13 29.8 1009 10 16.09344 0 0
5:15 pm 17:15 Mostly Cloudy 88 31 70 21 55 55 N 10 17 29.8 1009 10 16.09344 0 0
5:35 pm 17:35 Partly Cloudy 88 31 70 21 55 55 NNW 14 22 29.8 1009 10 16.09344 0 0
5:55 pm 17:55 Partly Cloudy 88 31 70 21 55 55 NW 10 17 29.8 1009 10 16.09344 0 0
6:15 pm 18:15 Cloudy 90 32 70 21 52 52 NNW 8 13 29.8 1009 10 16.09344 0 0
6:35 pm 18:35 Mostly Cloudy 88 31 68 20 52 52 NNW 9 15 29.83 1010 10 16.09344 0 0
6:55 pm 18:55 Sunny 88 31 68 20 52 52 NNW 7 11 29.83 1010 10 16.09344 0 0
7:15 pm 19:15 Sunny 88 31 66 19 49 49 N 9 15 29.83 1010 10 16.09344 0 0
7:35 pm 19:35 Sunny 86 30 68 20 55 55 NNW 8 13 29.85 1011 10 16.09344 0 0
7:55 pm 19:55 Sunny 86 30 66 19 52 52 N 7 11 29.85 1011 10 16.09344 0 0
8:15 pm 20:15 Sunny 84 29 66 19 55 55 NNW 7 11 29.88 1012 10 16.09344 0 0
8:35 pm 20:35 Sunny 82 28 64 18 55 55 N 7 11 29.88 1012 10 16.09344 0 0
8:55 pm 20:55 Clear 81 27 66 19 62 62 Calm 29.88 1012 10 16.09344 0 0
9:15 pm 21:15 Clear 81 27 66 19 62 62 WNW 5 7 29.91 1013 10 16.09344 0 0
9:35 pm 21:35 Clear 79 26 66 19 65 65 WNW 7 11 29.91 1013 10 16.09344 0 0
9:55 pm 21:55 Clear 79 26 68 20 70 70 NW 5 7 29.91 1013 10 16.09344 0 0
10:15 pm 22:15 Clear 79 26 66 19 65 65 NE 3 6 29.94 1014 10 16.09344 0 0
10:35 pm 22:35 Clear 79 26 66 19 65 65 NNE 3 6 29.94 1014 10 16.09344 0 0
10:55 pm 22:55 Clear 79 26 68 20 70 70 N 5 7 29.94 1014 10 16.09344 0 0
11:15 pm 23:15 Clear 77 25 68 20 74 74 N 5 7 29.94 1014 10 16.09344 0 0
11:35 pm 23:35 Clear 77 25 68 20 74 74 NNE 5 7 29.94 1014 10 16.09344 0 0
11:55 pm 23:55 Clear 77 25 68 20 74 74 N 3 6 29.94 1014 10 16.09344 0 0

Powered by AerisWeather